Location: Big Meadows
(38.5260°N, 78.4400°W)
Time: 00:09:04
(UTC-04:00)

H-2A R/B - Visible Passes

Search period start: 20 June 2018 00:00
Search period end: 30 June 2018 00:00
Orbit: 735 x 836 km, 98.3° (Epoch: 19 June)

Date Brightness Start Highest point End Pass type
(mag) Time Alt. Az. Time Alt. Az. Time Alt. Az.
20 Jun 2.1 22:11:51 17° SSE 22:15:54 88° WSW 22:21:19 10° NNW visible
21 Jun 2.5 21:40:36 12° SE 21:45:10 48° ENE 21:50:20 10° N visible
21 Jun 4.2 23:21:14 11° SW 23:24:49 20° W 23:28:40 10° NW visible
22 Jun 3.4 21:10:18 10° ESE 21:14:35 26° ENE 21:18:57 10° NNE visible
22 Jun 3.2 22:50:00 16° SSW 22:53:45 38° W 22:58:46 10° NNW visible
23 Jun 2.2 22:18:46 17° S 22:22:49 76° WSW 22:28:15 10° NNW visible
24 Jun 2.4 21:47:32 14° SSE 21:52:04 56° ENE 21:57:21 10° N visible
24 Jun 4.4 23:28:26 10° SW 23:31:49 17° W 23:35:15 10° NW visible
25 Jun 3.2 21:16:52 10° SE 21:21:26 30° ENE 21:26:04 10° N visible
25 Jun 3.5 22:56:55 15° SSW 23:00:42 33° W 23:05:34 10° NNW visible
26 Jun 2.4 22:25:41 17° S 22:29:45 65° W 22:35:10 10° NNW visible
27 Jun 2.2 21:54:28 15° SSE 21:58:57 66° ENE 22:04:20 10° N visible
27 Jun 4.5 23:35:57 10° WSW 23:38:48 15° W 23:41:43 10° WNW visible
28 Jun 3.0 21:23:30 10° SE 21:28:18 35° ENE 21:33:10 10° N visible
28 Jun 3.7 23:03:52 13° SSW 23:07:41 29° W 23:12:20 10° NW visible
29 Jun 2.7 22:32:39 17° S 22:36:41 56° W 22:42:03 10° NNW visible
